{"data":{"norad_id":65567,"intl_designator":"2025-203C","name":"PRAETORIAN SDA_604","alt_names":[],"object_type":"PAYLOAD","status":"ACTIVE","operator":null,"country":"US","launch_date":"2025-09-10","launch_site_code":"AFWTR","launch_vehicle":null,"mission":null,"orbit_class":"UNKNOWN","rcs_meters":null,"size_class":null,"mass_kg":null,"dimensions":null,"purposes":["military"],"wikipedia_slug":null,"has_3d_model":false,"image_url":null,"decayed_at":null,"tle_current":{"epoch":"2026-09-20T01:21:58.426272Z","epoch_age_seconds":52723,"freshness":"FRESH","line1":"1 65567U 25203C   26263.05692623  .00000051  00000+0  35858-4 0  9991","line2":"2 65567  81.3020 283.4349 0004624 311.6659  48.4100 13.83056741 51792","mean_motion":13.83056741,"eccentricity":0.0004624,"inclination_deg":81.302,"raan_deg":283.4349,"arg_perigee_deg":311.6659,"mean_anomaly_deg":48.41,"bstar":3.5858e-5,"rev_number":5179,"period_min":104.11720338811,"perigee_km":949.67488630501,"apogee_km":956.45478176113,"semimajor_km":7331.2018340331,"source":"CELESTRAK","updated_at":"2026-09-20T09:00:47.714326Z"}}}